When you browse on this site, cookies collect data to enhance your experience and personalize the content and advertising you see.
Visit our Privacy Policy to learn more. By continuing to use the site, you agree to this use of cookies and data.
  • In United Kingdom
  • List of Countries
  • For 7 days
  • Water Temperature
  • Satellite Maps
  • Weather Map
  • Weather Widgets
  • user-avatar
    Login

    Hourly Weather Yangiyul

    Today, 24 January, Thursday

    Time Temperature Precipitation Wind Pressure Humidity
    00:00 +4°C° 0 mm 1 mps 738 mmHg 50%
    01:00 +4°C° 0 mm 1 mps 738 mmHg 50%
    02:00 +4°C° 0 mm 1 mps 738 mmHg 49%
    03:00 +4°C° 0 mm 1 mps 739 mmHg 48%
    04:00 +4°C° 0 mm 1 mps 739 mmHg 48%
    05:00 +4°C° 0 mm 1 mps 739 mmHg 48%
    06:00 +3°C° 0 mm 1 mps 739 mmHg 47%
    07:00 +3°C° 0 mm 1 mps 740 mmHg 47%
    08:00 +3°C° 0 mm 1 mps 740 mmHg 47%
    09:00 +5°C° 0 mm 1 mps 740 mmHg 43%
    10:00 +5°C° 0 mm 2 mps 740 mmHg 39%
    11:00 +7°C° 0 mm 2 mps 740 mmHg 35%
    12:00 +8°C° 0 mm 2 mps 740 mmHg 33%
    13:00 +9°C° 0 mm 2 mps 740 mmHg 31%
    14:00 +10°C° 0 mm 2 mps 740 mmHg 30%
    15:00 +9°C° 0 mm 2 mps 740 mmHg 32%
    16:00 +10°C° 0 mm 1 mps 740 mmHg 34%
    17:00 +10°C° 0 mm 1 mps 741 mmHg 37%
    18:00 +9°C° 0 mm 1 mps 741 mmHg 39%
    19:00 +8°C° 0 mm 1 mps 741 mmHg 42%
    20:00 +6°C° 0 mm 2 mps 742 mmHg 44%
    21:00 +5°C° 0 mm 2 mps 742 mmHg 45%
    22:00 +5°C° 0 mm 2 mps 742 mmHg 46%
    23:00 +4°C° 0 mm 2 mps 741 mmHg 47%

    Tomorrow, 25 January, Friday

    Time Temperature Precipitation Wind Pressure Humidity
    00:00 +4°C° 0 mm 2 mps 741 mmHg 46%
    01:00 +4°C° 0 mm 2 mps 741 mmHg 46%
    02:00 +3°C° 0 mm 2 mps 741 mmHg 45%
    03:00 +3°C° 0 mm 2 mps 740 mmHg 45%
    04:00 +3°C° 0 mm 2 mps 740 mmHg 45%
    05:00 +3°C° 0 mm 1 mps 740 mmHg 44%
    06:00 +3°C° 0 mm 1 mps 740 mmHg 44%
    07:00 +3°C° 0 mm 1 mps 740 mmHg 44%
    08:00 +3°C° 0 mm 1 mps 740 mmHg 43%
    09:00 +4°C° 0 mm 1 mps 739 mmHg 40%
    10:00 +6°C° 0 mm 1 mps 739 mmHg 36%
    11:00 +6°C° 0 mm 0 mps 739 mmHg 32%
    12:00 +8°C° 0 mm 1 mps 738 mmHg 30%
    13:00 +9°C° 0 mm 1 mps 738 mmHg 29%
    14:00 +10°C° 0 mm 1 mps 738 mmHg 27%
    15:00 +10°C° 0 mm 1 mps 737 mmHg 28%
    16:00 +10°C° 0 mm 1 mps 737 mmHg 30%
    17:00 +9°C° 0 mm 1 mps 737 mmHg 31%
    18:00 +8°C° 0 mm 1 mps 737 mmHg 34%
    19:00 +8°C° 0 mm 1 mps 738 mmHg 36%
    20:00 +7°C° 0 mm 1 mps 738 mmHg 39%
    21:00 +6°C° 0 mm 1 mps 737 mmHg 40%
    22:00 +6°C° 0 mm 1 mps 737 mmHg 41%
    23:00 +5°C° 0 mm 1 mps 737 mmHg 42%

    Day after tomorrow, 26 January, Saturday

    Time Temperature Precipitation Wind Pressure Humidity
    00:00 +5°C° 0 mm 1 mps 737 mmHg 43%
    01:00 +4°C° 0 mm 1 mps 736 mmHg 43%
    02:00 +4°C° 0 mm 1 mps 736 mmHg 43%
    03:00 +4°C° 0 mm 1 mps 736 mmHg 43%
    04:00 +3°C° 0 mm 1 mps 736 mmHg 43%
    05:00 +3°C° 0 mm 1 mps 736 mmHg 42%
    06:00 +3°C° 0 mm 1 mps 736 mmHg 41%
    07:00 +3°C° 0 mm 1 mps 736 mmHg 40%
    08:00 +2°C° 0 mm 0 mps 736 mmHg 39%
    09:00 +4°C° 0 mm 0 mps 736 mmHg 36%
    10:00 +5°C° 0 mm 0 mps 736 mmHg 32%
    11:00 +8°C° 0 mm 1 mps 736 mmHg 28%
    12:00 +9°C° 0 mm 1 mps 736 mmHg 26%
    13:00 +10°C° 0 mm 1 mps 736 mmHg 25%
    14:00 +11°C° 0 mm 1 mps 736 mmHg 23%
    15:00 +11°C° 0 mm 1 mps 736 mmHg 25%
    16:00 +10°C° 0 mm 1 mps 736 mmHg 27%
    17:00 +10°C° 0 mm 1 mps 736 mmHg 29%
    18:00 +9°C° 0 mm 1 mps 736 mmHg 30%
    19:00 +8°C° 0 mm 1 mps 737 mmHg 32%
    20:00 +7°C° 0 mm 1 mps 737 mmHg 34%
    21:00 +6°C° 0 mm 1 mps 737 mmHg 33%
    22:00 +6°C° 0 mm 1 mps 737 mmHg 33%
    23:00 +5°C° 0 mm 1 mps 737 mmHg 32%

    27 January, Sunday

    Time Temperature Precipitation Wind Pressure Humidity
    00:00 +5°C° 0 mm 1 mps 737 mmHg 30%
    01:00 +5°C° 0 mm 1 mps 737 mmHg 29%
    02:00 +5°C° 0 mm 1 mps 737 mmHg 28%
    03:00 +5°C° 0 mm 1 mps 737 mmHg 27%
    04:00 +5°C° 0 mm 1 mps 737 mmHg 27%
    05:00 +6°C° 0 mm 1 mps 737 mmHg 27%
    06:00 +6°C° 0 mm 1 mps 737 mmHg 28%
    07:00 +6°C° 0 mm 1 mps 738 mmHg 29%
    08:00 +6°C° 0 mm 1 mps 738 mmHg 30%
    09:00 +7°C° 0 mm 1 mps 738 mmHg 29%
    10:00 +9°C° 0 mm 1 mps 738 mmHg 27%
    11:00 +10°C° 0 mm 1 mps 738 mmHg 26%
    12:00 +11°C° 0 mm 1 mps 738 mmHg 25%
    13:00 +12°C° 0 mm 1 mps 737 mmHg 24%
    14:00 +13°C° 0 mm 1 mps 737 mmHg 23%
    15:00 +13°C° 0 mm 1 mps 737 mmHg 26%
    16:00 +12°C° 0 mm 1 mps 737 mmHg 28%
    17:00 +12°C° 0 mm 1 mps 737 mmHg 30%
    18:00 +11°C° 0 mm 1 mps 737 mmHg 32%
    19:00 +10°C° 0 mm 1 mps 737 mmHg 34%
    20:00 +9°C° 0 mm 1 mps 737 mmHg 36%
    21:00 +8°C° 0 mm 1 mps 737 mmHg 35%
    22:00 +8°C° 0 mm 1 mps 737 mmHg 35%
    23:00 +8°C° 0 mm 1 mps 736 mmHg 35%

    28 January, Monday

    Time Temperature Precipitation Wind Pressure Humidity
    00:00 +8°C° 0 mm 1 mps 736 mmHg 35%
    01:00 +8°C° 0 mm 1 mps 736 mmHg 35%
    02:00 +8°C° 0 mm 1 mps 736 mmHg 35%
    03:00 +8°C° 0 mm 1 mps 736 mmHg 36%
    04:00 +8°C° 0 mm 1 mps 736 mmHg 37%
    05:00 +8°C° 0 mm 1 mps 736 mmHg 38%
    06:00 +7°C° 0 mm 1 mps 736 mmHg 39%
    07:00 +7°C° 0 mm 1 mps 736 mmHg 40%
    08:00 +7°C° 0 mm 1 mps 736 mmHg 41%
    09:00 +8°C° 0 mm 2 mps 736 mmHg 38%
    10:00 +10°C° 0 mm 2 mps 735 mmHg 34%
    11:00 +12°C° 0 mm 3 mps 735 mmHg 30%
    12:00 +14°C° 0 mm 3 mps 735 mmHg 27%
    13:00 +16°C° 0 mm 3 mps 735 mmHg 24%
    14:00 +17°C° 0 mm 3 mps 734 mmHg 22%
    15:00 +16°C° 0 mm 3 mps 734 mmHg 24%
    16:00 +14°C° 0 mm 3 mps 734 mmHg 26%
    17:00 +14°C° 0 mm 2 mps 734 mmHg 28%
    18:00 +13°C° 0 mm 2 mps 734 mmHg 29%
    19:00 +13°C° 0 mm 2 mps 734 mmHg 31%
    20:00 +12°C° 0 mm 2 mps 734 mmHg 33%
    21:00 +12°C° 0 mm 2 mps 733 mmHg 33%
    22:00 +12°C° 0 mm 2 mps 733 mmHg 33%
    23:00 +12°C° 0 mm 2 mps 733 mmHg 33%

    29 January, Tuesday

    Time Temperature Precipitation Wind Pressure Humidity
    00:00 +11°C° 0 mm 1 mps 732 mmHg 34%
    01:00 +11°C° 0 mm 1 mps 732 mmHg 35%
    02:00 +11°C° 0 mm 1 mps 732 mmHg 36%
    03:00 +10°C° 0 mm 1 mps 731 mmHg 37%
    04:00 +10°C° 0 mm 1 mps 731 mmHg 38%
    05:00 +9°C° 0 mm 1 mps 730 mmHg 39%
    06:00 +10°C° 0 mm 1 mps 730 mmHg 38%
    07:00 +10°C° 0 mm 1 mps 730 mmHg 38%
    08:00 +10°C° 0 mm 1 mps 730 mmHg 38%
    09:00 +12°C° 0 mm 2 mps 730 mmHg 37%
    10:00 +13°C° 0 mm 2 mps 730 mmHg 36%
    11:00 +14°C° 0 mm 2 mps 729 mmHg 35%
    12:00 +15°C° 0 mm 2 mps 729 mmHg 35%
    13:00 +16°C° 0 mm 2 mps 728 mmHg 35%
    14:00 +17°C° 0 mm 2 mps 728 mmHg 35%
    15:00 +16°C° 0.2 mm 2 mps 728 mmHg 41%
    16:00 +15°C° 0.2 mm 2 mps 728 mmHg 46%
    17:00 +14°C° 0.2 mm 2 mps 727 mmHg 52%
    18:00 +13°C° 0.2 mm 2 mps 728 mmHg 55%
    19:00 +13°C° 0.2 mm 2 mps 728 mmHg 58%
    20:00 +12°C° 0.2 mm 2 mps 728 mmHg 61%
    21:00 +12°C° 0.3 mm 2 mps 727 mmHg 63%
    22:00 +10°C° 0.3 mm 2 mps 727 mmHg 66%
    23:00 +10°C° 0.3 mm 2 mps 727 mmHg 68%
    Show more